Regional Weather Roundup
Issued by NWS

Home | Current Version | Previous Version | Graphics & Text | Print | Product List | Glossary On
Versions: 1 2 3 4 5 6 7 8 9 10 11 12 13 14 15 16 17 18 19 20 21 22 23 24 25 26 27 28 29 30 31 32 33 34 35 36 37 38 39 40 41 42 43 44 45 46 47 48 49 50
000
ASUS43 KOAX 222202
RWRNE

WEATHER ROUNDUP FOR NEBRASKA
NATIONAL WEATHER SERVICE OMAHA NE
400 PM CST MON DEC 22 2014

NOTES: SATELLITE DATA IS BEING USED TO AUGMENT CLOUD COVER ABOVE
       12000 FEET.
       "FAIR" INDICATES FEW OR NO CLOUDS BELOW 12,000 FEET WITH NO
       SIGNIFICANT WEATHER AND/OR OBSTRUCTIONS TO VISIBILITY.

  * THESE STATIONS DO NOT REPORT WEATHER SUCH AS RAIN...SNOW OR FOG.

NEZ001>004-019>022-054>056-222300-
NEBRASKA PANHANDLE

CITY           SKY/WX    TMP DP  RH WIND       PRES   REMARKS
SCOTTSBLUFF    PTSUNNY   35  26  69 NW22G38   29.65R WCI  23
ALLIANCE       MOSUNNY   39  23  52 NW20      29.59R WCI  29
CHADRON        PTSUNNY   41  23  48 NW28G41   29.60R
SIDNEY         PTSUNNY   36  22  56 NW20      29.63S WCI  25
$$

NEZ057>060-069>072-079>082-222300-
SOUTHWEST NEBRASKA

CITY           SKY/WX    TMP DP  RH WIND       PRES   REMARKS
NORTH PLATTE   CLOUDY    47  24  40 NW23G30   29.53S
IMPERIAL       SUNNY     43  22  43 NW22G36   29.59R
LEXINGTON      CLOUDY    46  30  53 NW18      29.51R
MCCOOK         MOSUNNY   48  24  39 NW25G33   29.56R
$$

NEZ005>010-023>029-035>040-094-222300-
NORTH CENTRAL NEBRASKA

CITY           SKY/WX    TMP DP  RH WIND       PRES   REMARKS
VALENTINE      LGT SNOW  34  32  92 NW9       29.50R FOG     WCI  27
AINSWORTH      LGT SNOW  34  32  92 NW16G25   29.49R WCI  24
BROKEN BOW     MOCLDY    42  33  70 N22G31    29.50R
$$

NEZ041-046>049-061>064-073>077-083>087-222300-
SOUTH CENTRAL NEBRASKA

CITY           SKY/WX    TMP DP  RH WIND       PRES   REMARKS
GRAND ISLAND   CLOUDY    45  30  55 NW30G38   29.48R
AURORA         CLOUDY    44  32  63 NW21G28   29.48R
HASTINGS       CLOUDY    47  28  47 NW21      29.48R
HEBRON         CLOUDY    47  32  56 NW14G23   29.48R
KEARNEY *      CLOUDY    45  28  53 W14G20    29.49R
$$

NEZ011>018-030>034-042>045-222300-
NORTHEAST NEBRASKA

CITY           SKY/WX    TMP DP  RH WIND       PRES   REMARKS
NORFOLK        CLOUDY    40  37  89 NW14      29.43R WCI  32
BLAIR          LGT RAIN  42  39  90 NW6       29.40S
COLUMBUS *     CLOUDY    41  34  75 NW18      29.46R
TEKAMAH        LGT RAIN  43  41  93 NW3       29.41R
$$

NEZ050>053-065>068-078-088>093-222300-
SOUTHEAST NEBRASKA

CITY           SKY/WX    TMP DP  RH WIND       PRES   REMARKS
LINCOLN        LGT RAIN  44  39  82 NW12      29.45R
OMAHA EPPLEY   LGT RAIN  43  42  97 CALM      29.42R FOG
FALLS CITY     LGT RAIN  44  32  62 W14       29.42R
NEBRASKA CITY  LGT RAIN  43  42  99 NW12G17   29.42R
$$

NEZ044-045-051>053-067-222300-
OMAHA AREA

CITY           SKY/WX    TMP DP  RH WIND       PRES   REMARKS
OMAHA EPPLEY   LGT RAIN  43  42  97 CALM      29.42R FOG
BLAIR          LGT RAIN  42  39  90 NW6       29.40S
OFFUTT AFB     LGT RAIN  43  41  93 NW9       29.40R
WAHOO          DRIZZLE   42  39  89 NW9       29.43R
$$


USA.gov is the U.S. government's official web portal to all federal, state and local government web resources and services.